Temp
25 23 23 23 22 21 21 20 20 20 20 20 20 19 19 19 19 19 18 18 18 18 17 17 17 17 17 17 17 16 16 17 17 17 15 16 16 16 17 16 13 14 14
23 22 23 22 22 21 21 20 20 20 20 20 19 19 19 18 18 18 18 18 17 17 17 17 17 16 16 16 16 16 16 16 15 15 15 16 16 16 16 15 13 14 14
22 20 22 22 22 21 21 20 20 20 20 20 19 19 19 18 18 18 18 17 17 17 17 16 16 16 16 16 16 16 16 15 15 15 15 14 15 15 15 15 14 14 14
21 19 22 21 21 21 20 20 20 20 19 19 19 19 18 18 18 18 18 17 17 17 16 16 16 16 16 16 16 16 15 16 16 15 15 14 15 15 14 14 14 14 14
21 20 18 21 20 20 20 20 20 20 19 19 19 18 18 18 18 17 17 17 16 16 16 16 16 16 16 16 16 16 15 16 15 15 15 14 15 15 14 14 14 14 14
21 20 19 20 20 20 19 19 19 19 19 18 18 18 18 18 17 17 17 17 17 16 16 16 16 16 16 16 16 16 15 15 15 15 14 15 15 15 14 14 14 14 14
20 20 18 20 20 19 19 19 19 19 19 18 18 18 17 17 17 17 17 17 17 16 16 16 16 16 15 16 16 16 16 16 16 15 14 15 15 15 14 14 14 14 14
19 19 17 19 19 19 19 18 18 18 18 18 17 18 17 17 17 16 16 16 16 16 16 16 16 16 15 15 16 16 16 15 14 15 14 15 14 14 14 14 14 14 14
17 17 17 19 19 19 19 18 19 18 17 18 17 17 17 17 17 16 16 16 16 16 16 16 16 16 15 15 16 16 15 15 15 15 14 14 14 14 14 14 14 14 14
18 17 17 16 20 19 19 19 19 18 17 17 17 16 16 16 16 16 16 16 16 16 16 16 16 15 15 15 15 15 15 15 14 14 14 15 14 14 14 14 14 14 13
18 17 17 17 16 16 19 19 19 18 18 17 16 16 16 15 16 16 16 15 15 15 15 15 16 15 15 14 15 15 14 15 14 14 14 14 14 14 14 14 14 13 13
20 19 17 16 16 15 18 20 20 18 17 17 16 15 16 14 15 15 14 15 15 15 15 15 15 15 15 14 14 14 15 14 15 15 14 15 14 14 14 14 13 13 13
20 19 18 17 16 16 16 18 20 18 15 15 14 14 14 15 15 14 14 15 15 14 14 14 14 14 15 14 14 14 14 15 15 14 14 14 14 14 14 13 13 13 13
19 19 19 17 17 16 16 16 16 17 19 15 15 14 14 14 15 15 15 14 14 14 14 14 13 13 14 14 14 14 14 15 15 14 14 14 13 13 14 13 13 13 13
18 18 18 17 17 16 15 17 16 15 19 19 16 14 14 14 15 15 16 15 15 15 15 15 14 14 14 14 13 13 14 14 14 14 13 14 13 13 13 13 13 13 13
17 17 17 17 17 17 16 15 16 15 15 19 19 17 15 15 15 15 15 15 16 16 16 15 14 14 14 13 14 13 13 14 14 14 13 13 13 13 13 13 13 12 12
17 17 16 16 16 17 16 16 15 16 15 15 19 19 17 15 15 15 15 15 16 16 15 15 14 14 14 14 13 13 13 14 14 14 13 13 13 12 13 12 12 12 12
16 15 14 15 15 15 16 16 16 16 16 15 15 19 19 16 15 15 15 15 15 15 14 14 14 14 14 14 14 14 13 13 13 13 12 13 13 13 12 12 11 11 11
14 14 13 12 13 14 15 16 16 16 16 16 15 16 19 19 15 15 15 15 15 15 14 14 13 13 13 14 15 14 13 13 13 13 12 12 13 13 12 12 11 11 11
12 11 11 11 12 13 13 14 15 15 15 16 16 16 16 20 18 15 15 15 14 14 14 13 13 13 13 13 13 12 13 12 13 13 12 12 12 13 12 11 11 12 11
9 8 9 9 10 12 13 13 14 15 15 15 16 16 16 18 19 17 16 15 15 14 14 13 13 13 13 13 13 12 12 12 12 13 12 12 11 12 12 12 12 11 11
5 4 5 6 7 9 13 14 14 15 15 15 15 16 16 17 18 17 17 15 15 14 14 13 13 13 14 14 13 12 11 11 12 12 12 12 12 12 12 11 11 11 11
2 3 3 3 4 7 10 14 14 15 16 15 15 15 15 15 16 15 17 15 16 15 15 14 14 14 13 13 13 13 14 14 14 11 11 12 11 11 12 11 11 11 11
1 0 -0 1 2 5 10 11 14 15 16 16 14 14 15 14 15 15 15 15 16 17 15 16 16 14 13 13 13 14 15 16 15 13 12 11 11 12 11 11 11 11 11
-1 -1 -1 1 2 3 8 10 14 14 16 16 15 14 15 14 14 15 14 14 16 17 17 17 16 14 14 13 13 13 14 14 15 16 14 11 11 11 11 11 11 11 12
-2 -2 -1 1 3 4 7 10 14 14 15 16 15 14 14 14 14 13 15 13 14 17 17 17 17 15 14 14 13 13 14 14 14 15 15 15 13 12 13 11 11 11 11
Height
1491 1486 1488 1489 1491 1493 1494 1496 1498 1501 1503 1505 1506 1506 1507 1508 1510 1512 1513 1514 1514 1515 1516 1517 1518 1519 1520 1521 1522 1523 1523 1524 1524 1524 1528 1529 1526 1527 1524 1529 1537 1536 1536
1492 1485 1487 1489 1492 1493 1495 1498 1500 1502 1503 1504 1506 1507 1508 1509 1510 1512 1514 1515 1515 1515 1517 1518 1519 1520 1521 1522 1523 1524 1525 1525 1526 1527 1529 1529 1527 1528 1528 1528 1534 1538 1540
1490 1486 1487 1489 1492 1493 1495 1496 1499 1502 1504 1505 1506 1508 1509 1510 1511 1512 1513 1516 1516 1516 1517 1518 1519 1520 1522 1523 1524 1525 1526 1526 1527 1529 1531 1529 1529 1530 1529 1532 1538 1540 1543
1490 1489 1487 1489 1493 1494 1495 1497 1499 1502 1503 1504 1506 1507 1510 1511 1512 1513 1514 1515 1517 1517 1518 1519 1520 1522 1522 1523 1524 1526 1527 1528 1529 1531 1532 1531 1531 1533 1536 1537 1540 1543 1545
1491 1491 1489 1490 1493 1495 1497 1498 1500 1502 1503 1504 1506 1507 1509 1511 1513 1515 1514 1515 1517 1518 1519 1521 1521 1522 1523 1523 1524 1526 1528 1529 1530 1531 1533 1533 1534 1537 1538 1541 1542 1545 1546
1492 1493 1490 1492 1494 1496 1498 1499 1501 1502 1504 1505 1505 1507 1510 1511 1514 1514 1515 1515 1516 1518 1520 1521 1522 1522 1524 1524 1525 1527 1529 1529 1529 1530 1531 1533 1536 1538 1540 1543 1545 1546 1547
1494 1495 1491 1492 1493 1495 1497 1499 1500 1502 1504 1506 1506 1507 1509 1511 1514 1515 1516 1516 1517 1517 1519 1520 1521 1522 1524 1525 1526 1528 1529 1529 1527 1529 1529 1532 1535 1538 1542 1545 1546 1547 1549
1493 1495 1492 1491 1493 1495 1496 1498 1500 1502 1504 1505 1506 1507 1509 1510 1513 1515 1515 1517 1517 1517 1518 1520 1521 1522 1524 1526 1526 1528 1529 1528 1529 1523 1525 1528 1536 1539 1543 1545 1547 1548 1549
1491 1492 1493 1491 1493 1495 1496 1498 1499 1501 1503 1504 1506 1507 1509 1510 1512 1514 1515 1518 1518 1517 1518 1519 1521 1522 1524 1527 1527 1529 1529 1530 1529 1527 1528 1527 1536 1540 1544 1546 1548 1549 1550
1492 1492 1492 1492 1492 1494 1496 1497 1498 1500 1502 1503 1505 1507 1508 1509 1511 1512 1514 1516 1517 1518 1518 1519 1520 1522 1525 1527 1529 1531 1533 1534 1534 1533 1532 1533 1539 1542 1544 1546 1548 1550 1551
1493 1492 1493 1493 1493 1493 1493 1496 1498 1499 1501 1502 1504 1505 1508 1509 1510 1511 1513 1514 1516 1517 1518 1518 1519 1521 1524 1527 1528 1532 1534 1535 1535 1537 1536 1538 1540 1543 1545 1547 1548 1550 1551
1494 1493 1493 1493 1494 1494 1493 1493 1497 1498 1500 1501 1502 1504 1505 1510 1511 1513 1512 1512 1514 1515 1517 1518 1519 1520 1523 1526 1527 1530 1533 1530 1537 1537 1537 1539 1541 1543 1545 1548 1549 1550 1552
1494 1493 1493 1493 1493 1493 1494 1492 1494 1497 1499 1500 1501 1502 1505 1507 1510 1512 1511 1510 1512 1514 1515 1516 1517 1518 1522 1526 1529 1529 1532 1532 1535 1535 1538 1540 1542 1544 1546 1548 1549 1551 1552
1492 1492 1492 1492 1492 1491 1493 1492 1492 1493 1494 1499 1500 1500 1502 1505 1506 1510 1512 1510 1511 1513 1516 1516 1516 1518 1521 1525 1528 1528 1530 1532 1535 1536 1537 1540 1542 1544 1546 1548 1549 1550 1551
1490 1490 1490 1489 1490 1490 1489 1491 1490 1489 1488 1492 1494 1497 1499 1501 1505 1507 1509 1510 1510 1511 1514 1515 1516 1518 1519 1522 1526 1529 1530 1532 1534 1536 1537 1539 1541 1543 1545 1547 1548 1550 1550
1488 1487 1486 1486 1485 1486 1485 1484 1486 1485 1485 1485 1488 1490 1493 1498 1502 1504 1505 1508 1509 1509 1512 1512 1515 1515 1518 1521 1524 1528 1529 1530 1532 1534 1534 1538 1540 1542 1544 1546 1547 1548 1549
1486 1485 1484 1482 1481 1481 1480 1479 1479 1480 1479 1479 1481 1484 1487 1492 1496 1499 1502 1503 1506 1507 1508 1510 1513 1514 1517 1520 1522 1525 1526 1528 1530 1532 1534 1536 1538 1540 1543 1545 1547 1548 1549
1484 1482 1479 1478 1476 1473 1473 1474 1472 1473 1473 1473 1474 1475 1480 1485 1490 1492 1496 1498 1502 1504 1505 1506 1509 1512 1514 1519 1521 1523 1524 1526 1528 1529 1531 1533 1536 1537 1538 1542 1545 1546 1548
1482 1478 1474 1471 1468 1467 1465 1465 1465 1464 1464 1464 1468 1468 1470 1477 1482 1485 1488 1493 1496 1500 1502 1502 1504 1507 1512 1515 1518 1519 1521 1523 1525 1527 1528 1529 1532 1533 1535 1538 1540 1542 1546
1476 1469 1466 1463 1460 1458 1457 1456 1454 1454 1454 1456 1456 1461 1461 1466 1472 1477 1480 1484 1489 1493 1497 1498 1499 1503 1507 1512 1514 1515 1518 1520 1522 1524 1525 1526 1527 1529 1532 1534 1536 1539 1542
1473 1467 1457 1452 1447 1450 1447 1445 1445 1443 1444 1445 1448 1450 1453 1455 1463 1468 1472 1476 1480 1485 1491 1493 1494 1498 1503 1508 1511 1512 1514 1516 1517 1520 1522 1523 1524 1525 1527 1530 1532 1535 1535
1463 1456 1449 1442 1437 1434 1437 1434 1435 1434 1434 1435 1438 1439 1443 1445 1451 1456 1463 1467 1471 1478 1484 1488 1490 1492 1498 1501 1505 1509 1512 1514 1513 1515 1517 1519 1520 1521 1523 1525 1527 1530 1533
1457 1449 1441 1432 1424 1422 1419 1423 1424 1424 1425 1423 1427 1431 1433 1437 1442 1449 1455 1461 1462 1470 1475 1478 1483 1487 1491 1494 1500 1504 1507 1508 1509 1510 1512 1515 1516 1517 1518 1520 1522 1525 1529
1449 1442 1432 1421 1413 1408 1408 1409 1410 1410 1412 1414 1418 1422 1423 1427 1431 1441 1447 1453 1454 1462 1467 1471 1477 1483 1487 1488 1494 1498 1501 1503 1504 1508 1509 1510 1512 1513 1514 1516 1517 1520 1524
1446 1436 1422 1412 1403 1396 1394 1394 1398 1398 1401 1403 1409 1413 1414 1416 1423 1428 1438 1446 1446 1453 1460 1464 1470 1475 1480 1482 1486 1492 1496 1499 1500 1501 1503 1505 1507 1507 1510 1511 1514 1515 1517
1440 1429 1416 1402 1390 1382 1380 1381 1384 1388 1390 1391 1396 1402 1402 1405 1414 1418 1428 1438 1441 1445 1451 1456 1464 1468 1472 1478 1481 1487 1489 1493 1495 1498 1499 1500 1500 1501 1503 1507 1509 1511 1513
Wind_Speed
6 12 15 16 15 12 11 11 11 11 10 11 12 13 13 13 12 8 6 7 8 8 10 11 12 13 13 11 9 6 5 5 3 3 6 10 15 13 8 10 9 12 16
6 16 17 16 15 13 12 11 11 11 10 11 13 13 14 14 12 8 7 8 8 8 9 10 11 11 11 10 8 7 6 6 9 11 13 13 6 7 11 9 14 14 14
5 14 17 15 15 14 13 13 12 10 10 10 12 13 14 14 11 9 8 8 8 8 9 10 10 10 10 8 8 8 7 8 9 15 6 7 13 13 12 14 13 13 15
4 10 16 16 15 15 15 13 12 10 10 10 11 13 15 15 12 10 8 8 8 8 9 10 10 9 10 9 10 10 7 8 11 8 11 9 8 10 14 16 16 16 15
6 9 13 16 16 15 14 13 11 11 10 10 10 13 16 16 13 11 9 9 9 9 10 8 9 9 9 11 11 11 9 13 11 12 11 9 11 13 14 15 16 15 14
5 7 16 15 16 15 15 13 11 10 10 10 10 14 16 14 13 13 11 10 9 9 10 10 10 8 9 10 10 9 12 14 15 11 16 10 10 14 14 16 16 14 12
4 9 17 16 17 16 15 13 11 11 10 11 12 14 15 15 15 14 12 11 10 10 10 10 10 9 10 10 10 10 11 12 11 14 11 14 15 15 14 15 14 13 11
4 9 13 15 18 17 15 14 12 12 11 12 14 14 15 15 15 14 12 12 11 11 11 11 10 10 10 11 11 10 10 11 13 21 15 18 18 19 19 17 14 12 10
4 8 9 12 18 17 16 15 14 14 13 13 14 15 16 16 16 15 13 13 12 12 12 11 11 11 11 12 13 11 10 9 4 8 7 14 19 19 18 16 12 10 8
5 7 9 11 18 18 17 18 17 16 16 15 16 16 16 16 17 16 15 14 14 14 13 12 11 12 13 13 15 12 12 12 9 6 7 10 17 17 17 15 11 9 8
10 7 9 11 13 15 18 19 20 19 18 17 18 18 17 17 17 17 16 15 15 15 14 12 12 13 13 13 13 12 15 10 11 9 8 13 16 16 16 13 11 10 8
11 9 10 11 12 13 18 22 22 20 19 19 20 17 19 14 13 13 13 17 16 16 15 14 13 13 14 16 15 15 15 16 9 10 12 13 15 15 14 12 11 11 9
13 10 10 13 14 15 13 19 22 20 17 17 19 18 17 17 17 15 15 19 18 17 16 15 15 16 18 15 14 17 17 13 14 12 12 13 15 14 12 13 12 11 10
15 14 11 13 16 17 16 17 17 21 25 18 20 21 19 20 19 15 14 14 14 15 12 12 14 16 19 17 17 17 18 15 16 13 13 15 14 13 11 12 11 12 11
17 16 14 14 15 19 20 19 19 22 28 30 26 25 25 20 18 17 17 15 15 14 15 15 16 18 20 21 16 16 15 15 15 13 12 13 12 12 13 13 11 11 10
19 19 18 17 17 19 24 24 23 24 24 30 31 30 27 21 21 18 19 18 17 16 16 17 18 20 18 18 17 16 13 16 16 13 14 14 12 11 13 13 12 11 9
21 22 22 22 22 23 24 28 28 27 27 29 34 34 33 28 24 21 20 19 18 18 18 18 21 17 18 16 15 13 15 16 18 15 14 16 15 12 10 14 14 12 10
24 24 26 26 28 29 26 30 33 32 32 30 31 36 36 35 28 26 22 21 19 19 18 21 22 22 20 17 15 15 15 17 16 15 14 18 18 19 22 17 15 14 14
30 31 34 34 35 34 34 31 37 38 38 37 34 36 39 39 35 29 26 24 24 20 19 24 24 22 18 19 16 17 17 14 16 14 16 17 17 16 20 22 20 15 13
37 43 41 36 35 39 37 39 34 42 43 41 39 38 40 41 43 37 29 27 28 24 23 27 27 22 19 17 17 21 16 13 14 16 16 15 17 17 19 26 26 20 16
37 37 42 41 36 37 40 39 44 40 45 44 43 43 42 44 45 44 37 34 34 30 27 27 27 24 22 20 18 16 18 20 20 20 17 19 18 19 20 23 28 26 21
39 37 38 42 39 36 40 43 40 45 44 47 46 46 46 50 46 49 45 39 39 33 30 30 27 25 24 25 24 14 13 17 21 23 19 19 19 19 19 21 28 28 23
41 38 40 41 40 40 35 41 41 42 43 47 48 47 47 50 46 48 49 43 44 38 37 37 32 28 31 27 29 16 11 11 15 18 21 20 20 20 19 20 23 30 25
43 40 41 40 40 41 40 36 45 41 45 46 46 48 46 49 46 47 47 48 49 42 41 39 35 32 29 34 30 26 19 9 11 7 14 21 24 22 20 21 23 28 28
38 42 41 39 39 38 39 39 46 43 43 44 47 49 46 45 47 44 46 47 50 47 45 43 38 36 37 30 31 29 28 21 15 15 10 13 21 28 24 21 23 25 28
40 41 43 34 35 35 34 38 41 45 42 42 43 44 45 41 47 42 46 45 48 49 46 46 42 41 40 34 24 27 27 27 24 19 16 14 12 16 25 24 24 28 28
Wind_Direction
300 245 203 202 206 206 201 190 186 191 193 203 207 206 205 201 197 195 202 197 184 176 181 183 186 185 187 197 205 208 190 161 153 198 173 132 127 128 134 134 149 135 126
294 243 206 204 210 205 203 199 194 199 198 204 210 212 209 205 201 199 206 204 191 183 185 188 189 191 194 196 195 184 170 170 167 160 157 137 136 130 128 154 135 143 146
240 241 204 201 207 207 206 203 204 208 209 209 216 217 214 206 208 210 206 206 201 188 189 192 193 192 193 192 190 180 173 162 153 153 160 134 138 133 148 158 155 153 147
208 211 204 200 208 209 208 207 211 218 213 211 215 217 213 206 213 216 217 210 207 194 194 192 192 190 191 193 192 181 178 163 147 138 115 142 141 158 148 149 153 151 148
187 206 208 206 208 212 214 216 224 228 223 213 208 208 207 207 215 217 215 212 207 199 197 196 191 193 193 194 192 193 186 163 143 125 139 152 150 156 152 149 151 150 150
197 200 230 223 214 216 221 224 231 235 232 219 207 200 207 213 216 215 216 213 211 203 198 198 202 195 199 197 199 199 175 172 172 159 169 158 145 154 149 155 158 153 145
211 205 238 228 215 216 222 226 234 236 232 224 214 206 206 213 217 218 219 216 209 203 199 204 209 205 202 197 193 178 177 189 203 163 171 162 156 161 160 163 159 152 151
206 217 259 221 214 217 219 227 231 232 228 224 218 209 210 214 218 224 223 221 211 203 200 205 209 206 202 193 179 186 198 202 200 163 178 161 160 165 168 169 162 160 158
257 225 229 228 218 222 225 226 225 226 222 219 219 215 212 213 217 226 226 222 213 207 206 209 211 211 206 200 184 191 203 182 193 187 171 148 162 170 169 167 169 167 169
294 239 224 223 225 226 232 231 225 222 220 215 214 219 215 214 219 220 220 219 216 215 212 211 212 213 211 206 199 202 193 193 200 196 192 170 169 170 172 175 177 174 174
332 262 230 222 220 222 224 235 227 222 220 216 215 213 218 217 216 219 217 220 220 217 217 215 215 214 210 213 207 206 191 178 197 185 202 181 174 176 180 183 183 179 181
337 306 246 237 230 227 227 234 231 225 224 219 218 220 210 206 221 216 220 220 219 216 215 221 222 208 201 209 194 189 187 209 191 203 207 194 184 184 191 197 190 188 193
323 330 273 248 235 231 233 234 234 230 216 219 217 209 210 204 211 213 220 224 216 215 222 219 199 192 191 184 197 191 185 190 201 192 205 208 190 194 198 199 199 203 203
309 311 311 269 249 238 229 236 225 220 227 206 223 214 209 212 209 214 221 210 202 222 206 206 201 191 188 182 191 193 195 202 197 199 210 201 193 204 210 199 203 211 214
310 305 300 289 263 249 245 233 231 228 232 228 214 212 210 207 211 212 215 215 206 207 209 206 204 197 192 189 191 194 203 206 197 218 195 199 197 206 211 210 210 212 215
317 309 300 287 270 254 243 239 231 234 228 232 232 222 211 203 210 213 211 212 209 205 206 210 207 204 194 196 197 197 202 212 199 211 209 193 198 200 215 225 219 221 223
319 311 303 294 281 263 248 242 237 232 232 227 233 229 223 205 207 207 212 208 209 205 202 213 204 206 197 198 199 202 208 208 211 220 203 199 196 199 232 227 223 228 232
316 310 307 296 283 265 253 247 238 233 229 227 226 233 226 217 202 208 207 210 203 206 202 204 203 204 196 195 203 209 210 209 211 206 201 210 213 239 234 224 227 235 238
312 309 304 298 287 276 262 252 244 233 228 229 224 230 230 222 210 204 201 208 200 201 203 202 200 199 204 193 204 209 206 205 214 211 208 217 232 242 233 223 218 224 237
312 307 306 303 287 277 267 253 250 239 229 222 223 218 231 223 218 209 199 204 201 198 204 199 200 204 204 202 214 221 208 214 216 214 222 228 232 233 233 228 226 229 231
309 305 299 300 291 281 265 256 245 246 234 224 217 213 224 228 216 216 205 202 209 197 200 213 205 197 198 204 207 217 215 218 219 220 220 223 230 232 238 234 230 227 225
317 311 304 300 294 285 269 254 247 239 242 229 219 213 215 229 217 215 212 204 211 200 201 208 204 198 196 211 205 209 220 232 232 231 228 232 231 234 240 236 237 224 221
323 316 308 302 295 285 273 254 247 247 240 230 223 214 210 221 223 208 216 205 216 207 208 215 214 201 195 211 213 203 207 223 218 237 228 230 231 236 239 232 233 224 220
324 315 311 304 296 286 261 268 241 239 234 233 227 218 209 214 223 209 213 207 221 215 212 221 218 204 203 205 209 211 220 221 201 183 221 229 235 228 238 235 227 222 225
325 321 321 306 296 290 266 260 238 240 234 228 232 227 214 210 213 216 204 208 219 219 219 222 218 208 206 221 218 214 220 230 231 228 197 212 226 225 230 238 217 229 231
338 328 329 317 307 292 271 261 234 232 232 218 217 226 221 207 211 216 210 208 213 225 221 224 222 217 217 210 226 211 215 221 221 226 241 225 237 242 232 221 234 229 232